Home > Weather > Cupertino > Past weeks

Flag for USA Weather for the Past 2 Weeks in Cupertino, California, USA

Now
64 °F

Sunny.


Feels Like: 64 °F
Forecast: 56 / 68 °F
Wind: 9 mph from Northwest

Location: Moffett Field

Current Time: May 3, 2016 at 7:33:09 PM

Latest Report: May 3, 2016 at 6:56 PM


Visibility: 10 mi

Pressure: 29.92 "Hg

Humidity: 65%

Dew Point: 52 °F

Location of CupertinoLocation

Historic Weather in Cupertino — Graph

°F

Cupertino Temperature Yesterday

Maximum temperature yesterday: 70 °F (at 1:56 PM)
Minimum temperature yesterday: 56 °F (at 6:56 AM)
Average temperature yesterday: 62 °F

High & Low Weather Summary for the Past Weeks

 TemperatureHumidityPressure
High83 °F (May 1, 2:56 PM)87% (Apr 22, 6:56 AM)30.22 "Hg (Apr 22, 6:56 AM)
Low46 °F (Apr 26, 4:56 AM)19% (Apr 19, 1:56 PM)29.81 "Hg (May 1, 2:56 AM)
Average61 °F59%29.99 "Hg
* Reported Apr 18 5:56 PM — May 3 5:56 PM, Cupertino, Weather by CustomWeather, © 2016

Note: Actual official high and low records may vary slightly from our data, if they occured in-between our weather recording intervals... More about our weather records

Advertising

Cupertino Weather History for the Previous 24 Hours

Scroll right to see more
 ConditionsComfort  
Time TempWeatherWind HumidityBarometerVisibility
5:56 PM
Tue, May 3
66 °FSunny.12 mph56%29.92 "Hg10 mi
4:56 PM68 °FSunny.12 mph57%29.93 "Hg10 mi
3:56 PM71 °FSunny.12 mph53%29.94 "Hg10 mi
2:56 PM68 °FSunny.9 mph59%29.97 "Hg10 mi
1:56 PM66 °FSunny.13 mph65%29.98 "Hg10 mi
12:56 PM67 °FSunny.10 mph63%30.00 "Hg10 mi
11:56 AM63 °FSunny.6 mph70%30.01 "Hg10 mi
10:56 AM62 °FPartly sunny.6 mph73%30.01 "Hg10 mi
9:56 AM61 °FOvercast.3 mph75%30.01 "Hg9 mi
8:56 AM59 °FOvercast.5 mph81%30.02 "Hg10 mi
7:56 AM58 °FOvercast.3 mph81%30.01 "Hg10 mi
6:56 AM57 °FOvercast.No wind83%30.00 "Hg9 mi
5:56 AM57 °FOvercast.No wind83%30.00 "Hg10 mi
4:56 AM57 °FOvercast.3 mph83%30.00 "Hg10 mi
3:56 AM57 °FOvercast.No wind83%30.02 "Hg10 mi
2:56 AM57 °FOvercast.5 mph81%30.02 "Hg10 mi
1:56 AM57 °FOvercast.7 mph83%30.03 "Hg10 mi
12:56 AM57 °FOvercast.8 mph83%30.05 "Hg10 mi
11:56 PM
Mon, May 2
57 °FPartly cloudy.3 mph81%30.06 "Hg10 mi
10:56 PM57 °FPassing clouds.6 mph83%30.06 "Hg10 mi
9:56 PM59 °FClear.3 mph78%30.05 "Hg10 mi
8:56 PM59 °FSunny.7 mph78%30.04 "Hg10 mi
7:56 PM60 °FSunny.7 mph75%30.02 "Hg10 mi
Weather by CustomWeather, © 2016

See weather overviewHow to use our weather pages